Jendouba, Tunisia

7:22 AM CET on September 20, 2019 (GMT +0100)
Jendouba

Weather History for DTTN - August, 2019

Change the Weather History Date:

Sunday, August 25, 2019

  Actual Average (WUND) Record (WUND)
Temperature  
Mean Temperature 84 °F -  
Max Temperature 96 °F 90 °F - (-1)
Min Temperature 73 °F 63 °F - (-1)
Cooling Degree Days 20    
Growing Degree Days 34 (Base 50)    
Moisture  
Dew Point 70 °F    
Average Humidity 71    
Maximum Humidity 89    
Minimum Humidity 32    
Precipitation  
Precipitation 0.12 in 0.04 in - ()
Sea Level Pressure  
Sea Level Pressure 29.98 in    
Wind  
Wind Speed 3 mph ()    
Max Wind Speed 21 mph    
Max Gust Speed -    
Visibility 5.7 miles    
Events Rain    
Averages and records for this station are not official NWS values.
T = Trace of Precipitation, MM = Missing Value Source: Averaged Metar Reports

Daily Weather History Graph

Daily Weather History Graph

Search for Another Location

Airport or City:

Astronomy

Aug. 25, 2019 Rise Set
Actual Time 5:50 AM CET 7:03 PM CET
Civil Twilight 5:23 AM CET 7:29 PM CET
Nautical Twilight 4:51 AM CET 8:01 PM CET
Astronomical Twilight 4:18 AM CET 8:34 PM CET
Moon 12:17 AM CET (8/25) 3:01 PM CET (8/25)
Length of Visible Light 14h 06m
Length of Day
13h 13m
Waning Crescent, 31% of the Moon is Illuminated
Aug 25
Waning Crescent
Aug 30
New
Sep 6
First Quarter
Sep 14
Full
Sep 22
Last Quarter

Hourly Weather History & Observations

Time (CET) Temp. Heat Index Dew Point Humidity Pressure Visibility Wind Dir Wind Speed Gust Speed Precip Events Conditions
12:00 AM 78.8 °F - 69.8 °F 74% 30.01 in 6.2 mi Variable 2.3 mph - N/A   Partly Cloudy
1:00 AM 78 °F - 70 °F 71% 29.99 in 5 mi ENE 2.3 mph - -   Scattered Clouds
1:00 AM 77.0 °F - 69.8 °F 78% 29.98 in 5.0 mi ENE 2.3 mph - N/A   Partly Cloudy
3:00 AM 77.0 °F - 69.8 °F 78% 30.01 in 5.0 mi Variable 2.3 mph - N/A   Partly Cloudy
4:00 AM 75 °F - 69 °F 77% 29.99 in 5 mi East 2.3 mph - -   Scattered Clouds
4:00 AM 75.2 °F - 69.8 °F 83% 29.98 in 5.0 mi East 2.3 mph - N/A   Partly Cloudy
5:00 AM 75.2 °F - 69.8 °F 83% 29.98 in 5.0 mi Calm Calm - N/A   Partly Cloudy
6:00 AM 73.4 °F - 69.8 °F 88% 29.98 in 5.0 mi NE 2.3 mph - N/A   Partly Cloudy
7:00 AM 77 °F - 70 °F 74% 30.01 in 5 mi Calm Calm - -   Partly Cloudy
7:00 AM 77.0 °F - 69.8 °F 78% 30.01 in 5.0 mi Calm Calm - N/A   Scattered Clouds
8:00 AM 77.0 °F - 69.8 °F 78% 30.01 in 5.0 mi SE 2.3 mph - N/A   Partly Cloudy
9:00 AM 78.8 °F - 71.6 °F 78% 29.98 in 6.2 mi East 9.2 mph - N/A   Scattered Clouds
10:00 AM 81 °F - 71 °F 65% 30.01 in 6 mi NNE 2.3 mph - -   Partly Cloudy
10:00 AM 80.6 °F 84.6 °F 71.6 °F 74% 30.01 in 6.2 mi NNE 2.3 mph - N/A   Scattered Clouds
11:00 AM 84.2 °F 89.6 °F 71.6 °F 66% 30.01 in 6.2 mi Variable 3.5 mph - N/A   Scattered Clouds
12:00 PM 87.8 °F 92.6 °F 69.8 °F 55% 29.98 in 6.2 mi SSW 2.3 mph - N/A   Scattered Clouds
2:00 PM 93.2 °F 96.2 °F 66.2 °F 41% 29.92 in 6.2 mi NE 9.2 mph - N/A   Scattered Clouds
4:00 PM 96.8 °F 98.0 °F 62.6 °F 32% 29.89 in 6.2 mi West 4.6 mph - N/A   Scattered Clouds
5:00 PM 93.2 °F 96.2 °F 66.2 °F 41% 29.89 in 6.2 mi NE 11.5 mph - N/A   Partly Cloudy
6:00 PM 84.2 °F 89.6 °F 71.6 °F 66% 29.95 in 6.2 mi ENE 20.7 mph - N/A   Partly Cloudy
7:00 PM 78 °F - 73 °F 79% 29.96 in 6 mi ENE 6.9 mph - - Rain Light Rain Showers
7:00 PM 77.0 °F - 73.4 °F 89% 29.95 in 6.2 mi ENE 6.9 mph - N/A   Scattered Clouds
8:00 PM 77.0 °F - 71.6 °F 83% 29.95 in 6.2 mi NE 6.9 mph - N/A   Scattered Clouds
9:00 PM 78.8 °F - 71.6 °F 78% 30.04 in 6.2 mi WSW 6.9 mph - N/A   Scattered Clouds
10:00 PM 77.0 °F - 68.0 °F 74% 29.98 in 5.0 mi ESE 4.6 mph - N/A   Scattered Clouds